Location: Big Sky Observatory Site
(50.2333°N, 113.4000°W)
Time: 19:09:02
(UTC-07:00)

Amateur Radio Satellites - All Passes

Search period start: 19 November 2017 18:39
Search period end: 20 November 2017 18:39
Location: Big Sky Observatory Site, 50.2333°N, 113.4000°W

Satellite Date Start Highest point End Downlink Frequencies (MHz)
Time Altitude Azimuth
CUTE-I 19 Nov 18:41:18 18:46:17 38° 263° (W) 18:51:20 437.470
XW-2B 19 Nov 18:42:57 18:45:49 21° 267° (W) 18:48:45 145.730 - 145.750
HO-68 19 Nov 18:55:34 19:02:45 69° 256° (WSW) 19:09:58 435.675
CUBESAT XI-V 19 Nov 19:05:34 19:06:50 11° 308° (NW) 19:08:06 437.345
NUDT-PHONESAT 19 Nov 19:06:10 19:08:31 16° 269° (W) 19:10:53 437.300
SEEDS 19 Nov 19:06:15 19:10:25 78° 257° (WSW) 19:14:38 437.485
CUBEBUG 2 19 Nov 19:10:08 19:14:44 76° 257° (WSW) 19:19:13 437.445
XW-2C 19 Nov 19:10:21 19:11:37 11° 273° (W) 19:12:54 145.795 - 145.815
LilacSat-2 19 Nov 19:10:28 19:11:28 11° 273° (W) 19:12:27 437.200
NO-84 19 Nov 19:12:31 19:16:25 44° 353° (N) 19:20:30 435.350 FM
STRAND 1 19 Nov 19:15:48 19:20:01 25° 93° (E) 19:24:13 437.568
AAUSAT CUBESAT 2 19 Nov 19:18:21 19:22:27 66° 73° (ENE) 19:26:34 437.432
RS-15 19 Nov 19:19:16 19:31:05 56° 116° (ESE) 19:42:48 29.354- 29.394
XW-2A 19 Nov 19:20:11 19:23:31 81° 73° (ENE) 19:26:51 145.665 - 145.685
AO-73 19 Nov 19:21:14 19:25:19 42° 69° (ENE) 19:29:18 145.935
KKS-1 19 Nov 19:24:31 19:27:53 21° 300° (WNW) 19:31:13 437.445
Oscar 11 19 Nov 19:39:33 19:43:38 45° 69° (ENE) 19:47:46 .
STARS 19 Nov 19:53:29 19:57:00 24° 299° (WNW) 20:00:29 437.465
Max Valier Satellite 19 Nov 20:00:20 20:01:46 12° 59° (ENE) 20:03:12 145.860
YUBILEINY 19 Nov 20:03:11 20:06:59 14° 292° (WNW) 20:10:46 435.215
ZACube-1 19 Nov 20:05:02 20:09:21 65° 259° (W) 20:13:34 437.345
DELFI C3 19 Nov 20:06:04 20:09:02 20° 63° (ENE) 20:12:01 145.870
CUTE 1.7 + AOD 2 19 Nov 20:10:51 20:12:51 13° 273° (W) 20:14:52 437.475
UWE-3 19 Nov 20:11:22 20:15:24 33° 264° (W) 20:19:20 435.000/436.395/437.385
FO-29 19 Nov 20:16:03 20:23:03 33° 90° (E) 20:29:48 435.910
HO-68 19 Nov 20:47:59 20:51:50 15° 277° (W) 20:55:42 435.675
NO-84 19 Nov 20:50:14 20:54:20 51° 14° (NNE) 20:58:32 435.350 FM
STRAND 1 19 Nov 20:54:31 20:59:30 53° 292° (WNW) 21:04:27 437.568
AAUSAT CUBESAT 2 19 Nov 20:56:01 20:58:21 15° 272° (W) 21:00:41 437.432
AO-73 19 Nov 20:58:17 21:01:42 23° 267° (W) 21:05:06 145.935
Oscar 11 19 Nov 21:16:38 21:20:00 22° 268° (W) 21:23:22 .
RS-15 19 Nov 21:31:22 21:43:39 64° 322° (NW) 21:55:43 29.354- 29.394
Max Valier Satellite 19 Nov 21:31:24 21:35:02 76° 256° (WSW) 21:38:43 145.860
EO-88 19 Nov 21:33:31 21:37:08 82° 75° (ENE) 21:40:47 145.990 - 145.960
UNISAT 6 19 Nov 21:33:58 21:37:13 21° 91° (E) 21:40:27 437.425
TIGRISAT 19 Nov 21:38:46 21:42:03 21° 92° (E) 21:45:17 435.000
DELFI C3 19 Nov 21:39:41 21:43:29 46° 261° (W) 21:47:22 145.870
O/OREOS (USA 219) 19 Nov 21:41:49 21:44:16 14° 38° (NE) 21:46:42 437.305
nSIGHT-1 19 Nov 21:56:46 21:59:14 20° 143° (SE) 22:01:43 .
FO-29 19 Nov 22:00:44 22:08:34 68° 291° (WNW) 22:16:07 435.910
LO-87 19 Nov 22:03:38 22:06:43 26° 66° (ENE) 22:09:47 145.935 - 145.965
ESTCUBE 1 19 Nov 22:13:07 22:17:03 31° 65° (ENE) 22:21:00 437.505/2401.250
SPROUT 19 Nov 22:17:19 22:18:10 10° 54° (NE) 22:19:01 437.525
NO-84 19 Nov 22:27:39 22:31:52 61° 213° (SSW) 22:36:04 435.350 FM
ISS 19 Nov 22:35:06 22:38:04 32° 148° (SSE) 22:41:02 437.550
STRAND 1 19 Nov 22:36:27 22:37:35 11° 312° (NW) 22:38:44 437.568
VELOX 1 19 Nov 22:42:34 22:44:45 14° 55° (NE) 22:46:56 145.980
PRISM 19 Nov 23:01:53 23:06:01 55° 101° (E) 23:10:05 437.425
SO-50 19 Nov 23:02:50 23:07:15 62° 126° (SE) 23:11:44 436.795
UNISAT 6 19 Nov 23:10:04 23:14:13 48° 290° (WNW) 23:18:18 437.425
TIGRISAT 19 Nov 23:14:52 23:19:00 46° 291° (WNW) 23:23:04 435.000
EO-79 19 Nov 23:18:18 23:19:40 11° 86° (E) 23:21:01 145.935-145.965
O/OREOS (USA 219) 19 Nov 23:20:02 23:24:37 66° 60° (ENE) 23:29:07 437.305
NANOSAT C BR1 19 Nov 23:22:42 23:23:56 11° 87° (E) 23:25:10 145.865
nSIGHT-1 19 Nov 23:31:55 23:35:08 78° 162° (SSE) 23:38:20 .
POLYITAN 1 19 Nov 23:32:10 23:34:45 16° 90° (E) 23:37:18 437.675
DX 1 19 Nov 23:33:44 23:35:10 11° 53° (NE) 23:36:36 434.975-435.025
LO-87 19 Nov 23:36:56 23:40:04 27° 265° (W) 23:43:12 145.935 - 145.965
FO-29 19 Nov 23:46:49 23:52:16 21° 313° (NW) 23:57:39 435.910
RS-15 19 Nov 23:47:26 23:58:52 41° 354° (N) 00:09:55 29.354- 29.394
SPROUT 19 Nov 23:49:00 23:53:15 68° 73° (ENE) 23:57:32 437.525
ESTCUBE 1 19 Nov 23:49:40 23:53:47 35° 264° (W) 23:57:56 437.505/2401.250
QB50P2 19 Nov 23:54:35 23:58:15 28° 95° (E) 00:01:52 145.880/145.840
NO-84 20 Nov 00:06:16 00:08:33 14° 233° (SW) 00:10:49 435.350 FM
AIST 2D 20 Nov 00:09:09 00:12:41 74° 285° (WNW) 00:16:12 435.315
ISS 20 Nov 00:11:06 00:14:23 81° 347° (NNW) 00:17:40 437.550
VELOX 1 20 Nov 00:16:03 00:20:30 85° 73° (ENE) 00:24:59 145.980
UKube-1 20 Nov 00:17:12 00:20:08 18° 59° (ENE) 00:23:04 .
50 SAT 20 Nov 00:17:43 00:20:11 20° 65° (ENE) 00:22:39 437.505
PCSat 20 Nov 00:27:35 00:32:01 26° 110° (ESE) 00:36:28 145.827
PRISM 20 Nov 00:37:55 00:40:55 19° 300° (WNW) 00:43:54 437.425
SO-50 20 Nov 00:44:06 00:48:02 29° 327° (NNW) 00:52:03 436.795
DUCHIFAT 1 20 Nov 00:46:20 00:50:30 66° 102° (ESE) 00:54:38 145.980
EO-79 20 Nov 00:51:49 00:56:03 87° 284° (WNW) 01:00:14 145.935-145.965
NANOSAT C BR1 20 Nov 00:56:03 01:00:16 88° 285° (WNW) 01:04:27 145.865
O/OREOS (USA 219) 20 Nov 01:00:30 01:03:31 18° 260° (W) 01:06:30 437.305
DX 1 20 Nov 01:06:12 01:10:33 71° 73° (ENE) 01:14:56 434.975-435.025
POLYITAN 1 20 Nov 01:06:47 01:10:57 62° 288° (WNW) 01:15:04 437.675
nSIGHT-1 20 Nov 01:08:15 01:11:27 65° 1° (N) 01:14:39 .
MOZHAYETS 4 20 Nov 01:13:51 01:16:17 14° 56° (NE) 01:18:42
SPROUT 20 Nov 01:27:06 01:29:36 15° 271° (W) 01:32:07 437.525
QB50P2 20 Nov 01:30:15 01:34:04 34° 294° (WNW) 01:37:52 145.880/145.840
BUGSAT 1 20 Nov 01:44:38 01:48:42 70° 103° (ESE) 01:52:42 437.445
ISS 20 Nov 01:47:43 01:51:00 71° 8° (N) 01:54:16 437.550
50 SAT 20 Nov 01:49:15 01:52:08 29° 263° (W) 01:55:03 437.505
UKube-1 20 Nov 01:51:24 01:55:42 65° 257° (WSW) 02:00:02 .
VELOX 1 20 Nov 01:55:32 01:57:33 13° 273° (W) 01:59:35 145.980
Oscar 19 20 Nov 02:00:44 02:05:48 54° 101° (E) 02:10:51 437.125/150
RS-15 20 Nov 02:02:50 02:14:38 51° 27° (NNE) 02:25:49 29.354- 29.394
PCSat 20 Nov 02:09:38 02:15:01 64° 310° (NW) 02:20:27 145.827
BEESAT 20 Nov 02:14:12 02:18:36 38° 65° (ENE) 02:23:01 436.000
Gurwin Techsat 1B 20 Nov 02:14:48 02:20:02 52° 100° (E) 02:25:12 435.225
ITUPSAT 1 20 Nov 02:22:47 02:27:19 44° 67° (ENE) 02:31:52 437.325
DUCHIFAT 1 20 Nov 02:23:02 02:25:42 17° 301° (WNW) 02:28:22 145.980
SO-50 20 Nov 02:27:27 02:29:55 14° 351° (N) 02:32:26 436.795
EO-79 20 Nov 02:29:20 02:31:08 13° 304° (NW) 02:32:56 145.935-145.965
NANOSAT C BR1 20 Nov 02:33:30 02:35:19 13° 304° (NW) 02:37:08 145.865
nSIGHT-1 20 Nov 02:44:33 02:47:44 67° 202° (SSW) 02:50:55 .
DX 1 20 Nov 02:44:41 02:47:14 15° 271° (W) 02:49:47 434.975-435.025
MOZHAYETS 4 20 Nov 02:48:11 02:52:45 88° 79° (E) 02:57:21
CUBESAT XI-V 20 Nov 02:56:43 03:00:44 30° 64° (ENE) 03:04:46 437.345
BEESAT 3 20 Nov 03:02:25 03:05:25 21° 115° (ESE) 03:08:26 437.485
AO-7 20 Nov 03:07:09 03:14:12 29° 93° (E) 03:21:13 .
M-CUBED/EXP-1 PRIME 20 Nov 03:07:16 03:11:29 38° 103° (ESE) 03:15:47 437.505
KKS-1 20 Nov 03:15:28 03:17:57 15° 56° (NE) 03:20:27 437.445
BUGSAT 1 20 Nov 03:21:12 03:23:33 15° 302° (WNW) 03:25:53 437.445
ISS 20 Nov 03:24:16 03:27:25 46° 207° (SSW) 03:30:34 437.550
Oscar 19 20 Nov 03:40:34 03:44:51 27° 300° (WNW) 03:49:07 437.125/150
STARS 20 Nov 03:44:15 03:46:03 12° 54° (NE) 03:47:52 437.465
ITAMSAT 1 20 Nov 03:50:24 03:55:11 36° 96° (E) 03:59:57 435.822/435.867
BEESAT 20 Nov 03:52:10 03:56:26 31° 264° (W) 04:00:42 436.000
Gurwin Techsat 1B 20 Nov 03:55:12 03:59:43 29° 300° (WNW) 04:04:13 435.225
PCSat 20 Nov 03:55:27 03:59:29 21° 334° (NNW) 04:03:31 145.827
ITUPSAT 1 20 Nov 04:01:15 04:05:19 27° 266° (W) 04:09:24 437.325
SO-50 20 Nov 04:09:16 04:12:10 16° 16° (NNE) 04:15:06 436.795
BEESAT 2 20 Nov 04:10:03 04:13:32 29° 119° (ESE) 04:17:05 435.950
RS-15 20 Nov 04:16:09 04:28:07 78° 236° (SW) 04:39:24 29.354- 29.394
nSIGHT-1 20 Nov 04:21:26 04:23:33 16° 220° (SW) 04:25:39 .
AO-85 20 Nov 04:21:50 04:24:16 16° 112° (ESE) 04:26:46 145.980
MOZHAYETS 4 20 Nov 04:28:34 04:30:35 13° 274° (W) 04:32:35
CUBESAT XI-V 20 Nov 04:33:44 04:38:00 38° 263° (W) 04:42:20 437.345
BEESAT 3 20 Nov 04:38:40 04:42:37 57° 314° (NW) 04:46:36 437.485
M-CUBED/EXP-1 PRIME 20 Nov 04:41:48 04:45:46 33° 300° (WNW) 04:49:51 437.505
KKS-1 20 Nov 04:49:23 04:53:52 88° 254° (WSW) 04:58:24 437.445
AO-7 20 Nov 04:59:25 05:07:46 78° 294° (WNW) 05:16:07 .
DOVE 4 20 Nov 04:59:46 05:04:31 33° 93° (E) 05:09:04 437.250
STRAND 1 20 Nov 05:01:06 05:02:47 12° 49° (NE) 05:04:28 437.568
ISS 20 Nov 05:02:50 05:03:16 10° 225° (SW) 05:03:41 437.550
YUBILEINY 20 Nov 05:14:14 05:21:59 37° 83° (E) 05:29:49 435.215
STARS 20 Nov 05:17:12 05:21:38 76° 74° (ENE) 05:26:06 437.465
ITAMSAT 1 20 Nov 05:29:52 05:34:41 39° 296° (WNW) 05:39:29 435.822/435.867
PCSat 20 Nov 05:42:27 05:45:02 13° 360° (N) 05:47:37 145.827
KAITUO 1B 20 Nov 05:44:38 05:46:05 12° 88° (E) 05:47:30 145.475/437.950
BEESAT 2 20 Nov 05:47:17 05:51:09 43° 318° (NW) 05:55:03 435.950
SO-50 20 Nov 05:49:25 05:53:48 41° 39° (NE) 05:58:14 436.795
XW-2D 20 Nov 05:55:11 05:58:08 21° 93° (E) 06:01:05 145.860 - 145.880
AO-85 20 Nov 06:00:11 06:04:06 70° 312° (NW) 06:08:17 145.980
XW-2B 20 Nov 06:09:42 06:13:02 28° 95° (E) 06:16:21 145.730 - 145.750
BEESAT 3 20 Nov 06:18:25 06:20:58 16° 336° (NNW) 06:23:31 437.485
HO-68 20 Nov 06:19:09 06:24:04 19° 87° (E) 06:28:55 435.675
KKS-1 20 Nov 06:29:26 06:31:06 12° 273° (W) 06:32:47 437.445
NUDT-PHONESAT 20 Nov 06:29:52 06:33:15 33° 97° (E) 06:36:37 437.300
RS-15 20 Nov 06:30:01 06:38:29 24° 261° (W) 06:46:40 29.354- 29.394
FO-29 20 Nov 06:33:39 06:39:13 26° 52° (NE) 06:45:11 435.910
XW-2C 20 Nov 06:34:57 06:38:42 54° 100° (E) 06:42:26 145.795 - 145.815
LilacSat-2 20 Nov 06:35:25 06:39:13 59° 101° (ESE) 06:43:01 437.200
STRAND 1 20 Nov 06:35:53 06:40:55 57° 69° (ENE) 06:45:59 437.568
DOVE 4 20 Nov 06:37:19 06:42:16 41° 293° (WNW) 06:47:00 437.250
SEEDS 20 Nov 06:46:36 06:48:42 13° 87° (E) 06:50:48 437.485
XW-2F 20 Nov 06:46:45 06:50:33 69° 102° (ESE) 06:54:20 145.980 - 146.000
CUTE-I 20 Nov 06:52:53 06:58:14 60° 102° (ESE) 07:03:31 437.470
AO-7 20 Nov 06:53:01 06:59:24 26° 317° (NW) 07:05:49 .
STARS 20 Nov 06:56:07 06:58:30 14° 271° (W) 07:00:56 437.465
CUBEBUG 2 20 Nov 06:57:21 06:59:54 16° 89° (E) 07:02:25 437.445
YUBILEINY 20 Nov 07:09:45 07:18:23 61° 286° (WNW) 07:27:10 435.215
KAITUO 1B 20 Nov 07:16:44 07:20:30 70° 286° (WNW) 07:24:15 145.475/437.950
PCSat 20 Nov 07:26:35 07:30:35 20° 26° (NNE) 07:34:36 145.827
BEESAT 2 20 Nov 07:27:37 07:29:53 14° 340° (NNW) 07:32:08 435.950
XW-2D 20 Nov 07:28:54 07:32:26 37° 291° (WNW) 07:35:58 145.860 - 145.880
SO-50 20 Nov 07:29:58 07:34:17 39° 239° (WSW) 07:38:38 436.795
AO-85 20 Nov 07:42:23 07:45:17 18° 336° (NNW) 07:48:18 145.980
XW-2B 20 Nov 07:43:53 07:47:09 28° 294° (WNW) 07:50:27 145.730 - 145.750
CUTE 1.7 + AOD 2 20 Nov 07:47:55 07:52:13 81° 103° (ESE) 07:56:30 437.475
ZACube-1 20 Nov 07:49:17 07:52:01 17° 90° (E) 07:54:44 437.345
UWE-3 20 Nov 07:55:43 07:59:31 33° 96° (E) 08:03:17 435.000/436.395/437.385
BEESAT 3 20 Nov 07:59:57 08:00:07 10° 0° (N) 08:00:16 437.485
NUDT-PHONESAT 20 Nov 08:03:58 08:06:58 23° 295° (WNW) 08:09:57 437.300
HO-68 20 Nov 08:05:36 08:12:52 84° 107° (ESE) 08:20:04 435.675
XW-2A 20 Nov 08:09:34 08:12:46 41° 99° (E) 08:15:59 145.665 - 145.685
XW-2C 20 Nov 08:10:04 08:12:30 17° 298° (WNW) 08:14:57 145.795 - 145.815
LilacSat-2 20 Nov 08:10:44 08:13:04 16° 299° (WNW) 08:15:25 437.200
STRAND 1 20 Nov 08:16:20 08:20:27 24° 268° (W) 08:24:36 437.568
FO-29 20 Nov 08:16:34 08:23:19 87° 253° (WSW) 08:30:56 435.910
SEEDS 20 Nov 08:20:39 08:24:55 76° 284° (WNW) 08:29:08 437.485
XW-2F 20 Nov 08:22:13 08:24:10 14° 300° (WNW) 08:26:07 145.980 - 146.000
PRISM 20 Nov 08:23:39 08:24:39 11° 54° (NE) 08:25:38 437.425
AAUSAT CUBESAT 2 20 Nov 08:30:47 08:34:59 65° 102° (ESE) 08:39:08 437.432
CUBEBUG 2 20 Nov 08:32:48 08:36:58 61° 288° (WNW) 08:41:03 437.445
CUTE-I 20 Nov 08:33:32 08:37:54 26° 301° (WNW) 08:42:16 437.470
UNISAT 6 20 Nov 08:36:39 08:40:44 33° 66° (ENE) 08:44:45 437.425
AO-73 20 Nov 08:40:08 08:44:08 46° 99° (E) 08:48:08 145.935
TIGRISAT 20 Nov 08:41:17 08:45:23 34° 66° (ENE) 08:49:25 435.000
AO-7 20 Nov 08:48:10 08:49:17 10° 343° (NNW) 08:50:23 .
Oscar 11 20 Nov 08:57:42 09:01:56 49° 99° (E) 09:06:08 .
BEESAT 2 20 Nov 09:08:24 09:09:17 11° 5° (N) 09:10:10 435.950
PCSat 20 Nov 09:09:40 09:15:04 62° 49° (NE) 09:20:27 145.827
YUBILEINY 20 Nov 09:12:00 09:17:28 17° 313° (NW) 09:22:59 435.215
DELFI C3 20 Nov 09:12:24 09:15:00 17° 90° (E) 09:17:37 145.870
ZACube-1 20 Nov 09:24:36 09:28:40 56° 288° (WNW) 09:32:43 437.345
CUTE 1.7 + AOD 2 20 Nov 09:25:07 09:27:29 15° 302° (WNW) 09:29:50 437.475
AO-85 20 Nov 09:25:40 09:27:23 12° 1° (N) 09:29:08 145.980
UWE-3 20 Nov 09:32:20 09:35:54 28° 295° (WNW) 09:39:26 435.000/436.395/437.385
BEESAT 3 20 Nov 09:36:42 09:39:15 16° 24° (NNE) 09:41:47 437.485
XW-2A 20 Nov 09:43:03 09:45:12 16° 297° (WNW) 09:47:20 145.665 - 145.685
HO-68 20 Nov 09:54:06 09:59:53 27° 309° (NW) 10:05:38 435.675
PRISM 20 Nov 09:55:02 09:59:08 73° 73° (ENE) 10:03:19 437.425
SEEDS 20 Nov 09:58:32 09:59:51 11° 305° (NW) 10:01:10 437.485
FO-29 20 Nov 10:04:39 10:09:33 20° 277° (W) 10:14:48 435.910
AAUSAT CUBESAT 2 20 Nov 10:07:17 10:09:58 17° 300° (WNW) 10:12:39 437.432
DUCHIFAT 1 20 Nov 10:09:22 10:11:14 13° 56° (NE) 10:13:04 145.980
UNISAT 6 20 Nov 10:13:19 10:17:26 33° 264° (W) 10:21:29 437.425
EO-79 20 Nov 10:14:20 10:17:07 17° 59° (ENE) 10:19:55 145.935-145.965
AO-73 20 Nov 10:16:59 10:20:07 21° 297° (WNW) 10:23:15 145.935
TIGRISAT 20 Nov 10:17:58 10:22:05 32° 264° (W) 10:26:07 435.000
NANOSAT C BR1 20 Nov 10:18:20 10:21:03 17° 59° (ENE) 10:23:47 145.865
POLYITAN 1 20 Nov 10:28:43 10:32:02 23° 62° (ENE) 10:35:21 437.675
Max Valier Satellite 20 Nov 10:30:05 10:33:46 76° 103° (ESE) 10:37:26 145.860
EO-88 20 Nov 10:30:48 10:34:24 54° 100° (E) 10:37:59 145.990 - 145.960
Oscar 11 20 Nov 10:34:27 10:37:47 22° 298° (WNW) 10:41:06 .
BEESAT 2 20 Nov 10:45:31 10:48:32 20° 28° (NNE) 10:51:32 435.950
DELFI C3 20 Nov 10:46:09 10:50:04 54° 289° (WNW) 10:53:58 145.870
AIST 2D 20 Nov 10:47:13 10:50:40 79° 75° (ENE) 10:54:10 435.315
QB50P2 20 Nov 10:51:10 10:55:07 39° 68° (ENE) 10:59:04 145.880/145.840
PCSat 20 Nov 10:53:37 10:58:07 27° 250° (WSW) 11:02:35 145.827
LO-87 20 Nov 10:59:11 11:01:32 17° 91° (E) 11:03:54 145.935 - 145.965
BUGSAT 1 20 Nov 11:05:42 11:07:36 13° 57° (ENE) 11:09:31 437.445
AO-85 20 Nov 11:06:10 11:09:26 20° 26° (NNE) 11:12:53 145.980
BEESAT 3 20 Nov 11:13:39 11:17:36 58° 46° (NE) 11:21:28 437.485
PRISM 20 Nov 11:32:51 11:34:55 13° 272° (W) 11:37:00 437.425
ESTCUBE 1 20 Nov 11:36:52 11:41:01 34° 96° (E) 11:45:09 437.505/2401.250
DUCHIFAT 1 20 Nov 11:42:00 11:46:14 87° 71° (ENE) 11:50:28 145.980
Oscar 19 20 Nov 11:44:41 11:48:33 22° 58° (ENE) 11:52:25 437.125/150
EO-79 20 Nov 11:48:13 11:52:26 65° 257° (WSW) 11:56:40 145.935-145.965
NANOSAT C BR1 20 Nov 11:52:06 11:56:18 66° 258° (WSW) 12:00:32 145.865
Gurwin Techsat 1B 20 Nov 12:02:18 12:06:28 24° 58° (ENE) 12:10:38 435.225
VELOX 1 20 Nov 12:03:17 12:04:53 12° 86° (E) 12:06:29 145.980
POLYITAN 1 20 Nov 12:03:29 12:07:34 46° 261° (W) 12:11:40 437.675
EO-88 20 Nov 12:05:27 12:07:40 15° 299° (WNW) 12:09:51 145.990 - 145.960
Max Valier Satellite 20 Nov 12:05:36 12:07:03 12° 301° (WNW) 12:08:29 145.860
AO-7 20 Nov 12:22:14 12:27:47 20° 38° (NE) 12:33:21 .
BEESAT 2 20 Nov 12:22:47 12:26:52 83° 50° (NE) 12:30:52 435.950
M-CUBED/EXP-1 PRIME 20 Nov 12:25:24 12:27:12 13° 49° (NE) 12:29:03 437.505
QB50P2 20 Nov 12:27:28 12:31:01 25° 266° (W) 12:34:34 145.880/145.840
LO-87 20 Nov 12:31:47 12:35:10 41° 290° (WNW) 12:38:30 145.935 - 145.965
BUGSAT 1 20 Nov 12:38:08 12:42:21 90° 35° (NE) 12:46:31 437.445
AO-85 20 Nov 12:46:05 12:50:37 66° 47° (NE) 12:55:30 145.980
BEESAT 3 20 Nov 12:51:53 12:54:46 19° 245° (WSW) 12:57:36 437.485
SPROUT 20 Nov 13:05:30 13:09:46 68° 103° (ESE) 13:13:58 437.525
ESTCUBE 1 20 Nov 13:13:44 13:17:46 33° 295° (WNW) 13:21:49 437.505/2401.250
DUCHIFAT 1 20 Nov 13:21:06 13:22:30 11° 273° (W) 13:23:54 145.980
Oscar 19 20 Nov 13:22:19 13:27:25 68° 257° (WSW) 13:32:33 437.125/150
UKube-1 20 Nov 13:34:45 13:37:16 15° 89° (E) 13:39:46 .
ITAMSAT 1 20 Nov 13:36:00 13:39:18 17° 53° (NE) 13:42:35 435.822/435.867
O/OREOS (USA 219) 20 Nov 13:37:16 13:41:17 30° 106° (ESE) 13:45:19 437.305
VELOX 1 20 Nov 13:37:30 13:42:01 88° 113° (ESE) 13:46:28 145.980
Gurwin Techsat 1B 20 Nov 13:40:42 13:45:59 66° 257° (WSW) 13:51:18 435.225
M-CUBED/EXP-1 PRIME 20 Nov 13:57:19 14:00:55 87° 241° (WSW) 14:04:53 437.505
BEESAT 2 20 Nov 14:01:53 14:04:00 14° 249° (WSW) 14:06:06 435.950
AO-7 20 Nov 14:10:55 14:19:00 60° 61° (ENE) 14:27:08 .
BUGSAT 1 20 Nov 14:17:11 14:18:18 11° 273° (W) 14:19:25 437.445
DX 1 20 Nov 14:25:35 14:29:59 69° 103° (ESE) 14:34:21 434.975-435.025
AO-85 20 Nov 14:27:02 14:30:44 23° 244° (WSW) 14:34:37 145.980
50 SAT 20 Nov 14:33:28 14:36:43 72° 286° (WNW) 14:39:56 437.505
DOVE 4 20 Nov 14:35:59 14:37:16 11° 49° (NE) 14:38:34 437.250
MOZHAYETS 4 20 Nov 14:39:36 14:42:13 15° 88° (E) 14:44:49
SPROUT 20 Nov 14:42:28 14:45:11 17° 301° (WNW) 14:47:53 437.525
Oscar 19 20 Nov 15:07:05 15:07:43 10° 277° (W) 15:08:22 437.125/150
UKube-1 20 Nov 15:09:26 15:13:46 70° 287° (WNW) 15:18:04 .
ITAMSAT 1 20 Nov 15:12:47 15:18:02 86° 73° (ENE) 15:23:19 435.822/435.867
VELOX 1 20 Nov 15:15:22 15:17:48 15° 304° (NW) 15:20:15 145.980
O/OREOS (USA 219) 20 Nov 15:16:14 15:20:35 40° 306° (NW) 15:24:57 437.305
YUBILEINY 20 Nov 15:17:30 15:24:35 26° 56° (NE) 15:31:38 435.215
NO-84 20 Nov 15:23:45 15:26:11 17° 129° (SE) 15:28:44 435.350 FM
Gurwin Techsat 1B 20 Nov 15:26:04 15:26:58 10° 277° (W) 15:27:52 435.225
BEESAT 20 Nov 15:46:42 15:51:18 45° 99° (E) 15:55:50 436.000
ITUPSAT 1 20 Nov 15:55:50 16:00:31 53° 101° (E) 16:05:10 437.325
DX 1 20 Nov 16:02:46 16:05:42 18° 302° (WNW) 16:08:37 434.975-435.025
AO-7 20 Nov 16:04:32 16:12:09 40° 263° (W) 16:19:51 .
DOVE 4 20 Nov 16:08:50 16:13:45 52° 69° (ENE) 16:18:53 437.250
MOZHAYETS 4 20 Nov 16:15:21 16:19:55 76° 287° (WNW) 16:24:28
CUBESAT XI-V 20 Nov 16:24:56 16:29:19 38° 97° (E) 16:33:41 437.345
KAITUO 1B 20 Nov 16:29:21 16:30:48 12° 59° (ENE) 16:32:16 145.475/437.950
KKS-1 20 Nov 16:37:16 16:39:16 13° 87° (E) 16:41:15 437.445
CUTE-I 20 Nov 16:40:41 16:45:09 27° 60° (ENE) 16:49:38 437.470
XW-2D 20 Nov 16:40:53 16:43:43 21° 64° (ENE) 16:46:34 145.860 - 145.880
UKube-1 20 Nov 16:47:44 16:48:59 11° 307° (NW) 16:50:14 .
HO-68 20 Nov 16:53:03 16:58:47 27° 51° (NE) 17:04:32 435.675
ITAMSAT 1 20 Nov 16:55:04 16:58:11 16° 272° (W) 17:01:21 435.822/435.867
XW-2B 20 Nov 16:55:15 16:58:26 27° 66° (ENE) 17:01:38 145.730 - 145.750
NO-84 20 Nov 16:59:05 17:02:55 76° 150° (SSE) 17:07:03 435.350 FM
O/OREOS (USA 219) 20 Nov 17:01:09 17:01:20 10° 328° (NNW) 17:01:30 437.305
CUTE 1.7 + AOD 2 20 Nov 17:11:23 17:13:36 14° 58° (ENE) 17:15:49 437.475
NUDT-PHONESAT 20 Nov 17:13:07 17:16:18 29° 67° (ENE) 17:19:32 437.300
YUBILEINY 20 Nov 17:13:51 17:22:47 88° 81° (E) 17:31:39 435.215
XW-2C 20 Nov 17:20:17 17:23:53 50° 72° (ENE) 17:27:33 145.795 - 145.815
LilacSat-2 20 Nov 17:21:22 17:25:02 56° 72° (ENE) 17:28:46 437.200
BEESAT 20 Nov 17:24:51 17:28:51 28° 298° (WNW) 17:32:52 436.000
XW-2F 20 Nov 17:31:32 17:35:12 63° 73° (ENE) 17:38:55 145.980 - 146.000
ITUPSAT 1 20 Nov 17:34:14 17:38:02 24° 300° (WNW) 17:41:50 437.325
SEEDS 20 Nov 17:42:28 17:45:15 18° 60° (ENE) 17:48:03 437.485
DOVE 4 20 Nov 17:47:27 17:51:42 26° 269° (W) 17:56:07 437.250
AAUSAT CUBESAT 2 20 Nov 17:53:04 17:54:14 11° 55° (NE) 17:55:23 437.432
MOZHAYETS 4 20 Nov 17:54:23 17:56:18 13° 306° (NW) 17:58:14
CUBEBUG 2 20 Nov 17:59:08 18:02:51 26° 64° (ENE) 18:06:31 437.445
KAITUO 1B 20 Nov 18:00:33 18:04:14 78° 258° (WSW) 18:07:58 145.475/437.950
CUBESAT XI-V 20 Nov 18:02:29 18:06:36 31° 296° (WNW) 18:10:43 437.345
KKS-1 20 Nov 18:11:57 18:16:27 85° 288° (WNW) 18:20:55 437.445
XW-2D 20 Nov 18:14:09 18:17:40 39° 262° (W) 18:21:13 145.860 - 145.880
CUTE-I 20 Nov 18:19:37 18:24:53 56° 259° (W) 18:30:13 437.470
Oscar 11 20 Nov 18:24:55 18:25:32 10° 54° (NE) 18:26:09 .
XW-2B 20 Nov 18:29:18 18:32:33 28° 265° (W) 18:35:51 145.730 - 145.750
